DW9679 Alicante ES current weather conditions

sailwx.info

Wind from 300 at 0 knots gusting 4

Air temperature 10.6° C
Dewpoint 3.4° C

Last reported at 2017-Nov-22 08:08 UTC.
Time now 2017-Nov-22 09:15 UTC

Location: N 38°21' W 000°39'.
View on Google Maps.

See reports from other nearby stations

  
Tides and Currents Weather Stations Pressure Air Temp Water Temp Dewpoint Dewpoint Depression Visibility Wind Speed Wind Dir Waves Ship Positions
date/time (UTC)wind fromknots sea level pressurealtimeterstation pressurevisibilityair tempwater tempwave heightnotes
2017-Nov-22 08:08 300 0 gusting 4 10.6
2017-Nov-22 08:03 311 1 gusting 4 10.0
2017-Nov-22 07:58 300 2 gusting 3 10.0
2017-Nov-22 07:53 293 1 gusting 3 10.0
2017-Nov-22 07:48 276 0 gusting 3 9.4
2017-Nov-22 07:43 297 1 gusting 3 9.4
2017-Nov-22 07:38 309 1 gusting 3 8.9
2017-Nov-22 07:33 290 0 gusting 3 8.9
2017-Nov-22 07:28 323 0 gusting 3 8.3
2017-Nov-22 07:23 315 0 gusting 4 8.3
2017-Nov-22 07:18 313 1 gusting 4 7.8
2017-Nov-22 07:13 322 2 gusting 4 7.8
2017-Nov-22 07:08 305 1 gusting 2 7.8
2017-Nov-22 07:03 293 7.8
2017-Nov-22 06:58 304 0 gusting 1 7.8
2017-Nov-22 06:53 305 0 gusting 2 7.8
2017-Nov-22 06:48 294 7.8
2017-Nov-22 06:43 322 2 gusting 4 7.8
2017-Nov-22 06:38 302 1 gusting 3 7.8
2017-Nov-22 06:28 299 0 gusting 4 7.8
2017-Nov-22 06:23 302 0 gusting 4 7.8
2017-Nov-22 06:18 298 0 gusting 4 7.8
2017-Nov-22 06:13 304 1 gusting 4 8.3
2017-Nov-22 06:08 308 1 gusting 4 8.3
2017-Nov-22 06:03 312 1 gusting 3 8.3
2017-Nov-22 05:58 304 8.3
2017-Nov-22 05:53 276 0 gusting 2 8.9
2017-Nov-22 05:48 302 0 gusting 4 8.9
2017-Nov-22 05:43 297 1 gusting 4 8.3
2017-Nov-22 05:38 322 2 gusting 5 8.3
2017-Nov-22 05:33 295 2 gusting 5 8.3
2017-Nov-22 05:28 300 2 gusting 4 8.3
2017-Nov-22 05:23 304 1 gusting 3 8.3
2017-Nov-22 05:18 295 1 gusting 3 8.3
2017-Nov-22 05:13 299 0 gusting 5 8.3
2017-Nov-22 05:08 328 2 gusting 5 8.3
2017-Nov-22 05:03 304 2 gusting 4 8.3
2017-Nov-22 04:58 300 2 gusting 4 8.3
2017-Nov-22 04:53 304 0 gusting 4 8.3
2017-Nov-22 04:48 271 0 gusting 4 8.3
2017-Nov-22 04:43 237 1 gusting 4 8.3
2017-Nov-22 04:33 293 0 gusting 3 8.3
2017-Nov-22 04:28 302 1 gusting 2 8.3
2017-Nov-22 04:23 282 8.3
2017-Nov-22 04:18 312 1 gusting 3 8.3
2017-Nov-22 04:13 307 1 gusting 3 8.3
2017-Nov-22 04:08 302 0 gusting 1 8.3
2017-Nov-22 04:03 287 0 gusting 2 8.3
2017-Nov-22 03:58 297 8.3
2017-Nov-22 03:53 281 0 gusting 2 8.3
2017-Nov-22 03:48 279 8.3
2017-Nov-22 03:43 312 0 gusting 3 8.9
2017-Nov-22 03:38 271 0 gusting 3 8.9
2017-Nov-22 03:33 314 0 gusting 4 8.9
2017-Nov-22 03:28 321 2 gusting 3 9.4
2017-Nov-22 03:23 302 1 gusting 3 9.4
2017-Nov-22 03:18 314 1 gusting 4 9.4
2017-Nov-22 03:13 322 2 gusting 4 8.9
2017-Nov-22 03:08 312 2 gusting 3 8.9
2017-Nov-22 03:03 305 1 gusting 4 8.9
2017-Nov-22 02:58 304 1 gusting 4 8.9
2017-Nov-22 02:53 278 0 gusting 3 9.4
2017-Nov-22 02:48 302 1 gusting 4 9.4
2017-Nov-22 02:43 315 2 gusting 4 9.4
2017-Nov-22 02:38 314 1 gusting 3 9.4
2017-Nov-22 02:33 305 1 gusting 4 9.4
2017-Nov-22 02:28 326 2 gusting 4 9.4
2017-Nov-22 02:23 312 2 gusting 4 9.4
2017-Nov-22 02:18 304 1 gusting 2 8.9
2017-Nov-22 02:13 307 0 gusting 3 8.9
2017-Nov-22 02:08 309 1 gusting 3 8.9
2017-Nov-22 02:03 309 2 gusting 3 8.9
2017-Nov-22 01:58 311 1 gusting 2 8.9
2017-Nov-22 01:53 299 8.9
2017-Nov-22 01:48 323 3 gusting 5 9.4
2017-Nov-22 01:43 312 3 gusting 4 9.4
2017-Nov-22 01:38 277 9.4
2017-Nov-22 01:33 302 9.4
2017-Nov-22 01:28 305 1 gusting 5 10.0
2017-Nov-22 01:23 302 1 gusting 4 9.4
2017-Nov-22 01:18 286 1 gusting 4 9.4
2017-Nov-22 01:13 312 1 gusting 4 8.9
2017-Nov-22 01:08 320 0 gusting 4 9.4
2017-Nov-22 01:03 297 0 gusting 3 9.4
2017-Nov-22 00:58 309 0 gusting 3 9.4
2017-Nov-22 00:53 293 0 gusting 2 9.4
2017-Nov-22 00:48 256 9.4
2017-Nov-22 00:43 272 9.4
2017-Nov-22 00:38 308 2 gusting 5 10.0
2017-Nov-22 00:33 302 2 gusting 4 10.0
2017-Nov-22 00:28 298 1 gusting 3 10.0
2017-Nov-21 23:28 290 0 gusting 3 10.0
2017-Nov-21 23:23 306 2 gusting 3 10.6
2017-Nov-21 23:18 318 0 gusting 2 10.6
2017-Nov-21 23:13 312 1 gusting 2 11.1
2017-Nov-21 23:08 319 1 gusting 2 11.1
2017-Nov-21 23:03 316 1 gusting 2 11.7
2017-Nov-21 22:58 315 1 gusting 2 11.1
2017-Nov-21 22:53 320 1 gusting 2 11.1
2017-Nov-21 22:48 305 2 gusting 2 11.1
2017-Nov-21 22:43 315 1 gusting 2 12.2
2017-Nov-21 22:38 316 0 gusting 1 12.2
2017-Nov-21 22:33 316 0 gusting 1 11.7
2017-Nov-21 22:28 316 0 gusting 2 11.1
2017-Nov-21 22:23 312 1 gusting 2 11.1
2017-Nov-21 22:18 321 1 gusting 2 11.1
2017-Nov-21 22:13 318 0 gusting 1 11.7
2017-Nov-21 22:08 318 12.2
2017-Nov-21 21:58 317 12.2
2017-Nov-21 21:53 318 11.7
2017-Nov-21 21:48 318 0 gusting 1 11.7
2017-Nov-21 21:43 316 0 gusting 2 11.1
2017-Nov-21 21:38 309 0 gusting 2 11.1
2017-Nov-21 21:33 326 1 gusting 3 10.6
2017-Nov-21 21:28 322 1 gusting 3 10.6
2017-Nov-21 21:23 314 3 gusting 3 11.1
2017-Nov-21 21:18 313 0 gusting 1 11.7
2017-Nov-21 21:13 316 11.7
2017-Nov-21 21:08 316 0 gusting 2 11.7
2017-Nov-21 21:03 314 1 gusting 2 12.2
2017-Nov-21 20:58 315 1 gusting 2 12.2
2017-Nov-21 20:53 316 0 gusting 0 12.2
2017-Nov-21 20:48 316 12.2
2017-Nov-21 20:43 316 12.8
2017-Nov-21 20:38 316 12.8
2017-Nov-21 20:33 316 12.8
2017-Nov-21 20:28 316 12.8
2017-Nov-21 20:23 316 0 gusting 1 12.8
2017-Nov-21 20:18 316 0 gusting 0 13.3
2017-Nov-21 20:13 316 13.3
2017-Nov-21 20:08 315 0 gusting 2 12.8
2017-Nov-21 20:03 318 0 gusting 2 12.8
2017-Nov-21 19:58 316 1 gusting 2 13.3
2017-Nov-21 19:53 319 13.3
2017-Nov-21 19:48 319 13.3
2017-Nov-21 19:43 319 13.3
2017-Nov-21 19:38 319 13.3
2017-Nov-21 19:33 319 13.3
2017-Nov-21 19:23 326 13.3
2017-Nov-21 19:18 326 13.3
2017-Nov-21 19:13 326 13.3
2017-Nov-21 19:08 326 13.3
2017-Nov-21 18:58 326 13.3
2017-Nov-21 18:53 328 13.9
2017-Nov-21 18:48 328 13.9
2017-Nov-21 18:43 326 13.9
2017-Nov-21 18:38 326 13.9
2017-Nov-21 18:33 326 13.9
2017-Nov-21 18:28 326 13.9
2017-Nov-21 18:23 326 13.9
2017-Nov-21 18:19 326 13.9
2017-Nov-21 18:13 333 13.9
2017-Nov-21 18:03 348 13.9
2017-Nov-21 17:58 350 13.9
2017-Nov-21 17:53 001 13.9
2017-Nov-21 17:48 001 14.4
2017-Nov-21 17:43 001 14.4
2017-Nov-21 17:38 001 14.4
2017-Nov-21 17:33 001 14.4
2017-Nov-21 17:28 001 14.4
2017-Nov-21 17:23 056 14.4
2017-Nov-21 17:18 056 14.4
2017-Nov-21 17:13 056 15.0
2017-Nov-21 17:08 056 15.0
2017-Nov-21 17:03 056 15.6
2017-Nov-21 16:58 060 15.6
2017-Nov-21 16:53 060 15.6
2017-Nov-21 16:48 060 16.1
2017-Nov-21 16:38 060 16.7
2017-Nov-21 16:33 078 16.7
2017-Nov-21 16:28 078 17.2
2017-Nov-21 16:23 078 17.8
2017-Nov-21 16:18 065 17.8
2017-Nov-21 16:13 062 18.3
2017-Nov-21 16:08 074 18.9
2017-Nov-21 16:03 132 18.9
2017-Nov-21 15:58 133 18.9
2017-Nov-21 15:53 081 18.9
2017-Nov-21 15:48 107 19.4
2017-Nov-21 15:43 058 19.4
2017-Nov-21 15:38 070 0 gusting 2 19.4
2017-Nov-21 15:33 116 0 gusting 2 19.4
2017-Nov-21 15:28 110 1 gusting 3 19.4
2017-Nov-21 15:23 086 20.0
2017-Nov-21 15:18 123 20.0
2017-Nov-21 15:13 141 20.0
2017-Nov-21 15:08 114 0 gusting 2 20.0
2017-Nov-21 15:03 110 0 gusting 3 20.6
2017-Nov-21 14:58 104 0 gusting 4 20.6
2017-Nov-21 14:53 120 1 gusting 3 20.6
2017-Nov-21 14:48 235 0 gusting 3 20.6
2017-Nov-21 14:43 203 0 gusting 4 20.6
2017-Nov-21 14:38 221 1 gusting 4 21.1
2017-Nov-21 14:33 211 0 gusting 4 21.1
2017-Nov-21 14:28 195 1 gusting 4 21.1
2017-Nov-21 14:23 148 0 gusting 2 21.1
2017-Nov-21 14:18 114 0 gusting 3 21.1
2017-Nov-21 14:13 117 1 gusting 4 21.1
2017-Nov-21 14:08 145 2 gusting 6 21.1
2017-Nov-21 13:58 210 3 gusting 6 21.1
2017-Nov-21 13:53 159 1 gusting 6 21.1
2017-Nov-21 13:48 110 0 gusting 4 21.1
2017-Nov-21 13:43 150 2 gusting 5 21.1
2017-Nov-21 13:38 235 1 gusting 6 21.1
2017-Nov-21 13:33 169 2 gusting 6 21.1
2017-Nov-21 13:28 103 1 gusting 4 21.7
2017-Nov-21 13:23 153 2 gusting 5 21.7
2017-Nov-21 13:13 086 1 gusting 4 21.7
2017-Nov-21 13:03 116 1 gusting 4 21.7
2017-Nov-21 12:58 215 2 gusting 4 21.7
2017-Nov-21 12:48 226 2 gusting 4 21.1
2017-Nov-21 12:43 116 1 gusting 5 21.1
2017-Nov-21 12:38 232 2 gusting 5 21.1
2017-Nov-21 12:33 226 1 gusting 4 21.1
2017-Nov-21 12:28 257 1 gusting 5 20.6
2017-Nov-21 12:23 139 1 gusting 5 20.6
2017-Nov-21 12:18 217 0 gusting 4 20.6
2017-Nov-21 12:13 132 2 gusting 7 20.6
2017-Nov-21 12:03 198 3 gusting 6 20.6
2017-Nov-21 11:58 208 3 gusting 6 20.6
2017-Nov-21 11:53 226 4 gusting 6 20.6
2017-Nov-21 11:43 203 3 gusting 6 21.1
2017-Nov-21 11:38 216 2 gusting 6 21.1
2017-Nov-21 11:33 238 3 gusting 6 21.7
2017-Nov-21 11:28 200 3 gusting 5 21.7
2017-Nov-21 11:18 210 1 gusting 3 22.2
2017-Nov-21 11:13 093 0 gusting 3 22.2
2017-Nov-21 11:08 205 2 gusting 3 22.2
2017-Nov-21 10:53 252 0 gusting 4 21.7
2017-Nov-21 10:48 174 1 gusting 6 21.1
2017-Nov-21 10:43 203 1 gusting 6 21.1
2017-Nov-21 10:38 214 1 gusting 3 21.1
2017-Nov-21 10:33 201 1 gusting 2 21.1
2017-Nov-21 10:28 226 0 gusting 2 20.6
2017-Nov-21 10:23 211 0 gusting 2 20.6
2017-Nov-21 10:18 219 19.4
2017-Nov-21 10:13 274 18.9
2017-Nov-21 10:03 271 18.3
2017-Nov-21 09:58 284 0 gusting 2 17.8
2017-Nov-21 09:53 218 17.8
2017-Nov-21 09:48 217 17.2
2017-Nov-21 09:43 230 0 gusting 3 17.2
2017-Nov-21 09:38 231 0 gusting 2 17.2
2017-Nov-21 09:33 086 16.7
2017-Nov-21 09:28 061 16.1
2017-Nov-21 09:23 321 0 gusting 2 15.6
2017-Nov-21 09:18 074 15.6
2017-Nov-21 09:13 283 0 gusting 4 15.0
2017-Nov-21 09:08 233 1 gusting 3 14.4
2017-Nov-21 09:03 199 0 gusting 5 14.4
2017-Nov-21 08:58 193 0 gusting 6 13.9
2017-Nov-21 08:53 342 2 gusting 6 13.9
2017-Nov-21 08:49 271 0 gusting 5 13.3
2017-Nov-21 08:43 262 0 gusting 5 13.3
2017-Nov-21 08:38 267 1 gusting 4 13.3
2017-Nov-21 08:33 245 0 gusting 3 13.3
2017-Nov-21 08:28 219 0 gusting 3 13.3
2017-Nov-21 08:23 290 0 gusting 3 12.8
2017-Nov-21 08:18 295 0 gusting 3 12.2
2017-Nov-21 08:13 287 1 gusting 3 12.2
2017-Nov-21 08:08 224 1 gusting 4 11.7
2017-Nov-21 08:03 313 0 gusting 4 11.1
2017-Nov-21 07:58 306 0 gusting 3 11.1
2017-Nov-21 07:53 295 10.6
2017-Nov-21 07:48 293 0 gusting 3 10.6
2017-Nov-21 07:43 290 1 gusting 3 10.0
2017-Nov-21 07:38 327 1 gusting 3 10.0
2017-Nov-21 07:33 280 0 gusting 3 9.4
2017-Nov-21 07:28 282 1 gusting 4 9.4
2017-Nov-21 07:23 333 2 gusting 4 8.9
2017-Nov-21 07:18 290 1 gusting 3 8.9
2017-Nov-21 07:13 302 2 gusting 3 8.9
2017-Nov-21 07:08 280 1 gusting 5 8.3
2017-Nov-21 07:03 327 1 gusting 5 7.8
2017-Nov-21 06:58 293 2 gusting 4 7.8
2017-Nov-21 06:53 304 0 gusting 5 7.8
2017-Nov-21 06:48 309 2 gusting 4 7.8
2017-Nov-21 06:43 326 1 gusting 5 7.8
2017-Nov-21 06:38 270 0 gusting 6 7.8
2017-Nov-21 06:33 282 2 gusting 6 7.8
2017-Nov-21 06:28 311 3 gusting 6 7.8
2017-Nov-21 06:23 331 2 gusting 4 7.8
2017-Nov-21 06:18 342 1 gusting 3 7.8
2017-Nov-21 06:13 328 7.8
2017-Nov-21 06:08 001 0 gusting 3 7.8
2017-Nov-21 06:03 288 0 gusting 4 7.8
2017-Nov-21 05:58 326 0 gusting 4 7.8
2017-Nov-21 05:53 308 0 gusting 4 7.8
2017-Nov-21 05:48 315 2 gusting 4 7.8
2017-Nov-21 05:43 315 1 gusting 3 7.8
2017-Nov-21 05:38 241 0 gusting 3 7.8
2017-Nov-21 05:33 242 0 gusting 3 7.8
2017-Nov-21 05:28 212 7.8
2017-Nov-21 05:23 330 0 gusting 7 8.3
2017-Nov-21 05:18 259 2 gusting 7 8.3
2017-Nov-21 05:13 297 4 gusting 7 8.3
2017-Nov-21 05:08 293 3 gusting 5 7.8
2017-Nov-21 05:03 278 2 gusting 5 7.8
2017-Nov-21 04:58 325 2 gusting 5 8.3
2017-Nov-21 04:53 304 1 gusting 6 8.3
2017-Nov-21 04:48 288 0 gusting 6 8.3
2017-Nov-21 04:43 290 2 gusting 6 8.3
2017-Nov-21 04:38 288 3 gusting 6 8.3
2017-Nov-21 04:33 305 3 gusting 6 8.3
2017-Nov-21 04:28 309 3 gusting 6 8.3
2017-Nov-21 04:23 328 2 gusting 5 8.3
2017-Nov-21 04:18 308 0 gusting 3 8.3
2017-Nov-21 03:23 237 8.3
2017-Nov-21 03:18 248 8.3
2017-Nov-21 03:13 294 8.3
2017-Nov-21 03:08 222 8.3
2017-Nov-21 03:03 304 1 gusting 2 8.3
2017-Nov-21 02:58 281 0 gusting 2 8.3
2017-Nov-21 02:53 018 8.3
2017-Nov-21 02:48 280 8.9
2017-Nov-21 02:43 306 8.3
2017-Nov-21 02:38 252 8.9
2017-Nov-21 02:33 315 8.9
2017-Nov-21 02:28 290 8.9
2017-Nov-21 02:23 235 8.9
2017-Nov-21 02:18 282 8.9
2017-Nov-21 02:13 285 1 gusting 3 8.9
2017-Nov-21 02:08 290 8.9
2017-Nov-21 02:03 300 2 gusting 4 8.9
2017-Nov-21 01:58 298 0 gusting 3 8.9
2017-Nov-21 01:53 335 0 gusting 3 8.9
2017-Nov-21 01:48 322 0 gusting 2 8.9
2017-Nov-21 01:43 290 8.9
2017-Nov-21 01:38 307 0 gusting 4 8.9
2017-Nov-21 01:33 318 1 gusting 3 9.4
2017-Nov-21 01:28 322 1 gusting 3 9.4
2017-Nov-21 01:23 273 1 gusting 3 9.4
2017-Nov-21 01:18 321 1 gusting 3 9.4
2017-Nov-21 01:13 304 1 gusting 3 9.4
2017-Nov-21 01:08 257 0 gusting 4 9.4
2017-Nov-21 01:03 311 2 gusting 4 9.4
2017-Nov-21 00:58 277 0 gusting 4 9.4
2017-Nov-21 00:53 293 1 gusting 4 9.4
2017-Nov-21 00:48 309 0 gusting 3 9.4
2017-Nov-21 00:43 284 9.4
2017-Nov-21 00:38 232 9.4
2017-Nov-21 00:33 331 10.0
2017-Nov-21 00:28 308 0 gusting 3 10.0
2017-Nov-21 00:23 153 10.0
2017-Nov-21 00:18 311 10.0
2017-Nov-21 00:13 273 10.0
2017-Nov-21 00:08 006 10.6
2017-Nov-21 00:03 228 10.6
2017-Nov-20 23:58 360 10.6
2017-Nov-20 23:53 224 10.6
2017-Nov-20 23:48 219 0 gusting 2 10.6
2017-Nov-20 23:43 256 10.6
2017-Nov-20 23:38 225 0 gusting 3 10.6
2017-Nov-20 23:33 153 10.6
2017-Nov-20 23:28 314 0 gusting 5 10.6
2017-Nov-20 23:23 004 0 gusting 5 10.6
2017-Nov-20 23:18 298 0 gusting 3 10.6
2017-Nov-20 23:13 288 10.6
2017-Nov-20 23:08 305 10.6
2017-Nov-20 23:03 300 10.6
2017-Nov-20 22:58 283 10.6
2017-Nov-20 22:53 218 10.6
2017-Nov-20 22:48 253 10.6
2017-Nov-20 22:43 196 10.6
2017-Nov-20 22:38 285 10.6
2017-Nov-20 22:33 311 10.6
2017-Nov-20 22:28 218 10.6
2017-Nov-20 22:23 297 0 gusting 5 11.1
2017-Nov-20 22:18 290 11.1
2017-Nov-20 22:13 330 11.7
2017-Nov-20 22:08 300 11.7
2017-Nov-20 22:03 023 12.2
2017-Nov-20 21:58 250 12.2
2017-Nov-20 21:53 255 12.2
2017-Nov-20 21:48 022 0 gusting 2 12.2
2017-Nov-20 21:43 287 12.2
2017-Nov-20 21:38 295 12.2
2017-Nov-20 21:33 335 12.2
2017-Nov-20 21:28 323 12.8
2017-Nov-20 21:24 331 0 gusting 2 12.8
2017-Nov-20 21:18 314 12.8
2017-Nov-20 21:13 283 12.8
2017-Nov-20 21:08 139 12.8
2017-Nov-20 21:03 290 12.8
2017-Nov-20 20:58 290 12.8
2017-Nov-20 20:53 331 12.8
2017-Nov-20 20:48 323 12.8
2017-Nov-20 20:43 278 12.8
2017-Nov-20 20:38 294 12.8
2017-Nov-20 20:33 294 12.8
2017-Nov-20 20:28 295 12.8
2017-Nov-20 20:23 302 12.8
2017-Nov-20 20:18 291 0 gusting 2 12.8
2017-Nov-20 20:13 309 12.8
2017-Nov-20 20:08 315 12.8
2017-Nov-20 20:03 315 13.3
2017-Nov-20 19:58 315 13.3
2017-Nov-20 19:53 315 13.3
2017-Nov-20 19:48 315 13.9
2017-Nov-20 19:43 315 13.9
2017-Nov-20 19:38 314 13.9
2017-Nov-20 19:33 314 13.9
2017-Nov-20 19:28 315 13.9
2017-Nov-20 19:23 314 13.9
2017-Nov-20 19:18 315 13.9
2017-Nov-20 19:13 314 13.9
2017-Nov-20 19:08 314 13.9
2017-Nov-20 19:03 267 13.9
2017-Nov-20 18:58 267 13.9
2017-Nov-20 18:53 265 13.9
2017-Nov-20 18:48 265 13.9
2017-Nov-20 18:43 264 13.9
2017-Nov-20 18:38 264 13.9
2017-Nov-20 18:33 264 13.9
2017-Nov-20 18:28 264 13.9
2017-Nov-20 18:23 264 13.9
2017-Nov-20 18:18 264 13.9
2017-Nov-20 18:13 261 13.9
2017-Nov-20 18:08 252 13.9
2017-Nov-20 18:04 250 13.9
2017-Nov-20 17:58 250 14.4
2017-Nov-20 17:53 250 14.4
2017-Nov-20 17:48 250 13.9
2017-Nov-20 17:43 250 13.9
2017-Nov-20 17:38 250 13.9
2017-Nov-20 17:33 225 14.4
2017-Nov-20 17:28 217 14.4
2017-Nov-20 17:23 217 14.4
2017-Nov-20 17:18 217 14.4
2017-Nov-20 17:13 217 14.4
2017-Nov-20 17:08 217 15.0
2017-Nov-20 17:03 217 15.0
2017-Nov-20 16:58 217 15.0
2017-Nov-20 16:53 217 15.6
2017-Nov-20 16:48 217 15.6
2017-Nov-20 16:43 217 16.1
2017-Nov-20 16:38 217 16.1
2017-Nov-20 16:33 203 16.1
2017-Nov-20 16:28 203 16.7
2017-Nov-20 16:23 248 0 gusting 1 16.7
2017-Nov-20 16:18 235 17.2
2017-Nov-20 16:13 207 17.8
2017-Nov-20 16:08 195 17.8
2017-Nov-20 16:03 212 0 gusting 3 17.8
2017-Nov-20 15:58 200 1 gusting 4 17.8
2017-Nov-20 15:53 235 0 gusting 3 18.3
2017-Nov-20 15:48 210 0 gusting 3 18.3
2017-Nov-20 15:43 214 0 gusting 2 18.9
2017-Nov-20 15:38 225 0 gusting 3 18.9
2017-Nov-20 15:33 115 1 gusting 4 18.9
2017-Nov-20 15:28 226 0 gusting 4 19.4
2017-Nov-20 15:23 150 0 gusting 2 19.4
2017-Nov-20 15:18 165 0 gusting 3 19.4
2017-Nov-20 15:13 203 1 gusting 4 19.4
2017-Nov-20 15:08 158 1 gusting 4 19.4
2017-Nov-20 15:03 238 1 gusting 4 19.4
2017-Nov-20 14:58 218 2 gusting 5 20.0
2017-Nov-20 14:53 188 2 gusting 5 20.0
2017-Nov-20 14:48 238 1 gusting 5 20.6
2017-Nov-20 14:43 203 1 gusting 5 20.0
2017-Nov-20 14:38 158 1 gusting 5 20.0
2017-Nov-20 14:33 198 1 gusting 5 20.0
2017-Nov-20 14:28 200 2 gusting 5 20.0
2017-Nov-20 14:23 190 1 gusting 5 20.0
2017-Nov-20 14:18 200 2 gusting 4 20.0
2017-Nov-20 14:13 195 2 gusting 4 20.0
2017-Nov-20 14:08 207 2 gusting 5 20.0
2017-Nov-20 14:03 232 2 gusting 5 20.0
2017-Nov-20 13:58 152 2 gusting 5 20.0
2017-Nov-20 13:53 194 1 gusting 6 20.0
2017-Nov-20 13:48 215 3 gusting 6 20.0
2017-Nov-20 13:43 193 1 gusting 6 20.0
2017-Nov-20 13:38 198 2 gusting 6 20.0
2017-Nov-20 13:33 142 2 gusting 6 20.6
2017-Nov-20 13:28 193 2 gusting 6 20.0
2017-Nov-20 13:23 186 2 gusting 6 20.0
2017-Nov-20 13:18 193 3 gusting 6 20.6
2017-Nov-20 13:13 168 2 gusting 5 20.0
2017-Nov-20 13:08 143 1 gusting 5 20.0
2017-Nov-20 13:03 228 1 gusting 6 20.0
2017-Nov-20 12:58 194 0 gusting 6 20.0
2017-Nov-20 12:53 221 1 gusting 4 20.0
2017-Nov-20 12:48 205 1 gusting 5 20.0
2017-Nov-20 12:43 209 3 gusting 5 20.0
2017-Nov-20 12:38 193 2 gusting 5 19.4
2017-Nov-20 12:33 217 1 gusting 5 19.4
2017-Nov-20 12:28 218 1 gusting 5 19.4
2017-Nov-20 12:23 162 1 gusting 6 19.4
2017-Nov-20 12:18 194 2 gusting 6 19.4
2017-Nov-20 12:13 210 1 gusting 5 19.4
2017-Nov-20 12:08 182 2 gusting 5 19.4
2017-Nov-20 12:03 205 2 gusting 6 19.4
2017-Nov-20 11:58 210 3 gusting 6 19.4
2017-Nov-20 11:53 225 2 gusting 6 19.4
2017-Nov-20 11:48 207 3 gusting 5 19.4
2017-Nov-20 11:43 200 1 gusting 3 20.0
2017-Nov-20 11:33 212 0 gusting 2 19.4
2017-Nov-20 11:28 219 0 gusting 3 19.4
2017-Nov-20 11:23 172 0 gusting 3 19.4
2017-Nov-20 11:18 170 0 gusting 3 19.4
2017-Nov-20 11:13 228 0 gusting 3 18.9
2017-Nov-20 11:08 233 1 gusting 3 18.9
2017-Nov-20 11:03 230 1 gusting 4 18.9
2017-Nov-20 10:58 214 1 gusting 4 18.9
2017-Nov-20 10:53 197 0 gusting 3 18.9
2017-Nov-20 10:48 222 0 gusting 3 18.3
2017-Nov-20 10:43 252 0 gusting 3 18.3
2017-Nov-20 10:38 211 1 gusting 3 18.3
2017-Nov-20 10:33 228 0 gusting 2 18.3
2017-Nov-20 10:28 248 0 gusting 2 18.3
2017-Nov-20 10:23 245 17.8
2017-Nov-20 10:18 287 17.8
2017-Nov-20 10:13 245 17.8
2017-Nov-20 10:08 228 0 gusting 2 17.8
2017-Nov-20 10:03 245 17.2
2017-Nov-20 09:53 245 17.2
2017-Nov-20 09:48 245 16.7
2017-Nov-20 09:43 203 0 gusting 2 16.7
2017-Nov-20 09:38 221 0 gusting 1 16.7
2017-Nov-20 09:33 249 16.7
2017-Nov-20 09:28 221 16.1
2017-Nov-20 09:23 312 16.1
2017-Nov-20 09:18 269 15.6
2017-Nov-20 09:13 345 15.6
2017-Nov-20 09:08 250 15.0
2017-Nov-20 09:03 248 14.4